[[{"header":{"parameterUnit":"m.s-1","parameterCategory":1,"la1":30.2991,"la2":30.254,"lo1":-89.0895,"lo2":-89.0444,"dy":0.0017,"dx":0.0017,"nx":28,"ny":28,"refTime":"2025-03-09T09:00:00:Z","depth":0,"parameterNumber":2,"parameterNumberName":"U-component_of_WINDS"},"data":[0,0,0,0,0,0,0,0,0,0,0,0,0,0,0,0,0,0,0,0,0,0,0,0,0,0,0,0,0,0,0,0,0,0,0,0,0,0,0,0,0,0,0,0,0,0,0,0,0,0,0,0,0,0,0,0,0,0,-2.9479,-2.9479,0,-2.9532,-2.9532,-2.9533,-2.9513,-2.9512,-2.9511,-2.951,-2.9559,-2.9562,-2.9564,0,0,0,0,0,0,0,0,0,0,0,0,0,-2.9354,-2.9357,-2.9479,-2.9479,-2.948,-2.9532,-2.9533,-2.9533,-2.9514,-2.9512,-2.9511,-2.9509,-2.9559,-2.9561,-2.9564,0,0,0,0,0,0,0,0,0,0,0,0,0,-2.9408,-2.9357,-2.9479,-2.9477,-2.9477,-2.9532,-2.9533,-2.9533,-2.9514,-2.9512,-2.951,-2.9509,-2.9558,-2.9561,-2.9565,-2.9623,0,0,-2.9576,-2.9577,0,0,0,0,0,0,0,0,-2.9405,-2.9412,-2.9476,-2.9477,-2.9477,-2.9514,-2.9507,-2.9563,-2.9514,-2.95,-2.951,-2.9508,-2.9545,-2.955,-2.9564,-2.9625,-2.9627,-2.9576,-2.9578,-2.958,-2.9581,0,0,0,0,0,0,0,-2.9401,-2.941,-2.95,-2.9477,-2.9478,-2.9471,-2.9477,-2.9517,-2.9532,-2.9501,-2.95,-2.9506,-2.9545,-2.956,-2.9565,-2.9628,-2.9576,-2.9579,-2.9582,-2.9583,-2.9737,-2.9739,0,0,0,0,0,0,-2.9398,-2.9407,-2.9498,-2.9501,-2.9436,-2.9475,-2.9481,-2.9504,-2.9531,-2.9534,-2.9508,-2.9505,-2.9555,-2.956,-2.9566,-2.9634,-2.958,-2.9583,-2.9585,-2.9735,-2.9738,-2.974,0,0,0,0,0,0,-2.9395,-2.9406,-2.9496,-2.9454,-2.9465,-2.9479,-2.9505,-2.9506,-2.9521,-2.9537,-2.9539,-2.9521,-2.9554,-2.9561,-2.9609,-2.9636,-2.9585,-2.9588,-2.9733,-2.9736,-2.9739,-2.9772,0,0,0,0,0,0,-2.9392,-2.9405,-2.9429,-2.9455,-2.9467,-2.9539,-2.9507,-2.9508,-2.9528,-2.9525,-2.9549,-2.9552,-2.9553,-2.9603,-2.9612,-2.964,-2.9591,-2.9731,-2.9734,-2.9738,-2.9768,-2.9775,-2.9782,0,0,0,0,0,-2.9387,-2.9436,-2.9431,-2.9442,-2.9497,-2.9541,-2.9548,-2.955,-2.953,-2.9553,-2.9563,-2.9551,-2.9632,-2.9608,-2.9618,-2.9647,-2.9729,-2.9733,-2.9737,-2.9765,-2.9774,-2.9781,0,0,0,0,0,0,-2.9412,-2.9439,-2.9434,-2.9492,-2.9515,-2.9537,-2.9566,-2.9559,-2.9586,-2.9582,-2.9582,-2.9587,-2.9636,-2.9647,-2.962,-2.9704,-2.9677,-2.9684,-2.9695,-2.9703,-2.971,-2.9705,-2.9594,0,0,0,0,0,-2.9425,-2.9459,-2.9481,-2.953,-2.9542,-2.9552,-2.9571,-2.9571,-2.9593,-2.9602,-2.9615,-2.9636,-2.9666,-2.9685,-2.9714,-2.977,-2.9774,-2.9795,-2.9801,-2.9807,-2.9812,-2.984,-2.9848,-2.9754,-2.9754,-2.9754,0,0,-2.945,-2.9469,-2.9491,-2.9535,-2.9553,-2.9586,-2.956,-2.9598,-2.9622,-2.9607,-2.9653,-2.9663,-2.9686,-2.9738,-2.9761,-2.9748,-2.9839,-2.9812,-2.9817,-2.9818,-2.9845,-2.9854,-2.9862,-2.9757,-2.9756,-2.9756,0,0,-2.9514,-2.9533,-2.9575,-2.9593,-2.962,-2.9626,-2.9636,-2.9661,-2.9667,-2.9713,-2.9702,-2.973,-2.9783,-2.9799,-2.9814,-2.9882,-2.9871,-2.9891,-2.9925,-2.9952,-2.996,-2.9966,-2.9988,-2.9996,-2.9897,-2.9897,-2.9897,0,-2.9541,-2.9594,-2.9597,-2.9635,-2.9654,-2.9644,-2.9685,-2.9701,-2.9736,-2.9748,-2.9733,-2.9797,-2.9812,-2.9866,-2.9882,-2.9896,-2.9905,-2.9888,-2.9959,-2.9965,-2.9971,-2.9992,-3.0001,-2.9899,-2.9898,-2.9898,-2.9898,0,-2.9625,-2.9662,-2.9692,-2.9726,-2.9749,-2.9788,-2.9795,-2.9817,-2.9815,-2.9822,-2.9867,-2.9885,-2.9916,-2.9929,-2.9927,-2.9982,-2.9973,-2.9959,-2.9931,-2.9982,-3.0002,-3.001,-2.9902,-2.9901,-2.99,-2.99,0,0,-2.9705,-2.9741,-2.9752,-2.9766,-2.9794,-2.9821,-2.9859,-2.9891,-2.9908,-2.9932,-2.9962,-3.0006,-2.9993,-3.001,-3.0009,-3.0033,-3.0083,-3.0016,-3.0016,-3.0025,-3.0142,-3.0151,-3.016,-3.0077,-3.0078,-3.0079,-3.0139,0,-2.9769,-2.9837,-2.9841,-2.9902,-2.9933,-2.9924,-2.9956,-2.9976,-2.9984,-3.001,-3.0018,-3.0048,-3.003,-3.004,-3.0064,-3.0072,-3.0106,-3.0068,-3.0102,-3.0103,-3.0094,-3.0171,-3.018,-3.0236,-3.0147,-3.0148,-3.0149,0,-2.9853,-2.988,-2.9944,-2.9966,-2.998,-3.0009,-3.0037,-3.0064,-3.0085,-3.0088,-3.0107,-3.0103,-3.0139,-3.0112,-3.016,-3.0135,-3.0149,-3.0155,-3.0157,-3.0158,-3.0128,-3.0172,-3.0254,-3.0261,-3.0162,-3.0161,-3.016,0,-2.9901,-2.9954,-2.9998,-3.0011,-3.0039,-3.0059,-3.0072,-3.0091,-3.0109,-3.0133,-3.0145,-3.0172,-3.0187,-3.0207,-3.0209,-3.019,-3.0257,-3.0231,-3.0259,-3.0259,-3.0272,-3.0271,-3.0355,-3.0285,-3.0285,-3.0285,-3.0285,0,-2.997,-3.0009,-3.002,-3.0047,-3.009,-3.0093,-3.0135,-3.0145,-3.0162,-3.019,-3.0183,-3.0208,-3.0211,-3.0237,-3.0239,-3.0277,-3.0284,-3.0286,-3.0286,-3.0285,-3.0285,-3.0293,-3.0288,-3.0287,-3.0286,-3.0286,-3.0286,0,-3.0031,-3.004,-3.0088,-3.011,-3.0117,-3.0147,-3.0165,-3.019,-3.0197,-3.0232,-3.024,-3.025,-3.028,-3.0285,-3.0319,-3.032,-3.0365,-3.0362,-3.0359,-3.0357,-3.0384,-3.038,-3.0475,-3.0486,-3.0411,-3.0412,-3.0412,0,-3.0074,-3.0104,-3.0129,-3.0148,-3.0161,-3.0191,-3.021,-3.0214,-3.0233,-3.0258,-3.0279,-3.0309,-3.0332,-3.038,-3.0389,-3.0415,-3.0411,-3.0442,-3.0414,-3.0412,-3.0408,-3.0405,-3.0407,-3.0446,-3.0447,-3.0448,-3.0448,0,-3.0147,-3.015,-3.0178,-3.0207,-3.023,-3.0253,-3.0274,-3.0289,-3.0295,-3.0316,-3.0347,-3.0366,-3.0401,-3.0429,-3.0455,-3.0465,-3.0457,-3.0457,-3.0465,-3.0464,-3.0459,-3.0459,-3.037,-3.0455,-3.0454,-3.0454,-3.0453,-3.0453,-3.0199,-3.0224,-3.0246,-3.0276,-3.0293,-3.0313,-3.0337,-3.0347,-3.0373,-3.0403,-3.0404,-3.0437,-3.0455,-3.0489,-3.0501,-3.0525,-3.0515,-3.0526,-3.0529,-3.0531,-3.0532,-3.0457,-3.053,-3.053,-3.053,-3.053,-3.053,0,-3.027,-3.0283,-3.0312,-3.0342,-3.0365,-3.0358,-3.0381,-3.04,-3.043,-3.0449,-3.0472,-3.0506,-3.0534,-3.0545,-3.0571,-3.0588,-3.0585,-3.0595,-3.0592,-3.0594,-3.0541,-3.0531,-3.0597,-3.0597,-3.0597,-3.0597,-3.0597,-3.0597,-3.0309,-3.0351,-3.0356,-3.0405,-3.0418,-3.0451,-3.0465,-3.0482,-3.0497,-3.0536,-3.0559,-3.0567,-3.0582,-3.0609,-3.0633,-3.0635,-3.0644,-3.0655,-3.0656,-3.0605,-3.0598,-3.0592,-3.0582,-3.0658,-3.0658,-3.0706,-3.0707,-3.0707]},{"header":{"parameterUnit":"m.s-1","parameterCategory":1,"la1":30.2991,"la2":30.254,"lo1":-89.0895,"lo2":-89.0444,"dy":0.0017,"dx":0.0017,"nx":28,"ny":28,"refTime":"2025-03-09T09:00:00:Z","depth":0,"parameterNumber":3,"parameterNumberName":"V-component_of_WINDS"},"data":[0,0,0,0,0,0,0,0,0,0,0,0,0,0,0,0,0,0,0,0,0,0,0,0,0,0,0,0,0,0,0,0,0,0,0,0,0,0,0,0,0,0,0,0,0,0,0,0,0,0,0,0,0,0,0,0,0,0,0.3766,0.3766,0,0.3774,0.3774,0.3774,0.3722,0.3721,0.3719,0.3718,0.3725,0.3727,0.3728,0,0,0,0,0,0,0,0,0,0,0,0,0,0.3708,0.3709,0.3766,0.3766,0.3766,0.3774,0.3774,0.3774,0.3722,0.3721,0.3719,0.3717,0.3725,0.3727,0.3729,0,0,0,0,0,0,0,0,0,0,0,0,0,0.3726,0.371,0.3766,0.3742,0.3739,0.3774,0.3774,0.3774,0.3723,0.372,0.3718,0.3716,0.3724,0.3726,0.3729,0.3787,0,0,0.3736,0.3737,0,0,0,0,0,0,0,0,0.3725,0.3728,0.3745,0.3743,0.3741,0.3745,0.3756,0.3778,0.3723,0.3729,0.3718,0.3715,0.3734,0.3735,0.3741,0.3787,0.3788,0.3736,0.3738,0.3739,0.3739,0,0,0,0,0,0,0,0.3724,0.3728,0.3769,0.3745,0.3743,0.373,0.3731,0.376,0.3743,0.3728,0.3725,0.3726,0.3732,0.3739,0.3741,0.3788,0.3736,0.3738,0.374,0.3741,0.3884,0.3886,0,0,0,0,0,0,0.3726,0.3727,0.3769,0.3769,0.3728,0.3733,0.3733,0.3746,0.3743,0.374,0.3728,0.3724,0.3736,0.3738,0.3741,0.381,0.3739,0.3741,0.3742,0.3881,0.3884,0.3887,0,0,0,0,0,0,0.3725,0.373,0.3769,0.3747,0.3751,0.3736,0.3751,0.3747,0.3754,0.3743,0.374,0.3738,0.3734,0.3738,0.3776,0.381,0.3742,0.3744,0.3878,0.3882,0.3885,0.3948,0,0,0,0,0,0,0.3724,0.373,0.3752,0.3748,0.3752,0.3804,0.3753,0.3749,0.3758,0.3753,0.3751,0.3749,0.3733,0.3773,0.3779,0.3812,0.3746,0.3875,0.388,0.3884,0.3943,0.3954,0.3963,0,0,0,0,0,0.3722,0.3769,0.3753,0.3759,0.3779,0.3806,0.3808,0.3789,0.3761,0.3783,0.3776,0.3749,0.3805,0.3777,0.3783,0.3818,0.3873,0.3879,0.3884,0.3939,0.3952,0.3962,0,0,0,0,0,0,0.3777,0.3768,0.375,0.3798,0.3803,0.3797,0.3824,0.3802,0.3815,0.381,0.3785,0.3785,0.3828,0.3826,0.3796,0.3874,0.3834,0.3841,0.3874,0.3886,0.3896,0.3896,0.3748,0,0,0,0,0,0.3795,0.3817,0.3808,0.385,0.3854,0.3839,0.3849,0.3834,0.3838,0.384,0.3836,0.3841,0.386,0.3873,0.3889,0.3942,0.3942,0.3969,0.3979,0.3987,0.3993,0.4023,0.4035,0.3904,0.3904,0.3904,0,0,0.3831,0.3829,0.3844,0.3861,0.3863,0.3887,0.3841,0.3867,0.3885,0.3844,0.3881,0.3878,0.3882,0.3929,0.3949,0.3929,0.4029,0.3994,0.4,0.4002,0.403,0.4042,0.4053,0.3908,0.3907,0.3907,0,0,0.3911,0.3911,0.3947,0.3951,0.3955,0.3944,0.3953,0.3951,0.3947,0.3984,0.3954,0.3974,0.4007,0.4012,0.4018,0.4101,0.4077,0.4107,0.4158,0.4187,0.4198,0.4207,0.4238,0.4249,0.4113,0.4113,0.4113,0,0.3956,0.3991,0.3969,0.3998,0.4007,0.3971,0.4008,0.4012,0.4022,0.4029,0.4006,0.4047,0.4047,0.4095,0.4116,0.4122,0.4132,0.4107,0.4198,0.4207,0.4215,0.4244,0.4256,0.4117,0.4117,0.4116,0.4116,0,0.4047,0.4072,0.41,0.4111,0.4123,0.4156,0.414,0.4154,0.4138,0.4131,0.4169,0.4168,0.4184,0.4194,0.4178,0.4241,0.4228,0.4202,0.4161,0.4231,0.4259,0.427,0.4122,0.4121,0.412,0.4119,0,0,0.4161,0.416,0.4171,0.4176,0.4178,0.4197,0.4229,0.4245,0.4259,0.4267,0.4294,0.4323,0.4299,0.4307,0.4291,0.4316,0.4384,0.4287,0.4287,0.4307,0.4455,0.4476,0.449,0.4368,0.437,0.4372,0.4455,0,0.424,0.4295,0.4276,0.4332,0.4355,0.4322,0.435,0.4355,0.4349,0.4368,0.4361,0.4383,0.4348,0.4353,0.4377,0.4371,0.4414,0.4364,0.4394,0.4396,0.4396,0.4504,0.4526,0.4605,0.4466,0.4467,0.4469,0,0.4339,0.4352,0.441,0.441,0.4419,0.4445,0.4459,0.4477,0.4482,0.4476,0.4486,0.4465,0.4497,0.4456,0.45,0.4467,0.4478,0.4477,0.448,0.4483,0.4438,0.4511,0.4629,0.4642,0.4485,0.4484,0.4483,0,0.4419,0.445,0.449,0.4495,0.4495,0.4514,0.4515,0.4518,0.4529,0.4542,0.4549,0.4565,0.4575,0.4588,0.4572,0.4543,0.462,0.4577,0.4617,0.4618,0.4636,0.4635,0.4759,0.464,0.464,0.464,0.464,0,0.451,0.4548,0.4526,0.455,0.4592,0.457,0.4612,0.4609,0.4612,0.4636,0.4607,0.463,0.4608,0.4629,0.4617,0.4657,0.4661,0.4658,0.4654,0.4661,0.4662,0.4669,0.4664,0.4643,0.4642,0.4642,0.4641,0,0.4607,0.4593,0.4635,0.4632,0.4632,0.4663,0.466,0.4683,0.4675,0.4706,0.4712,0.47,0.4723,0.4709,0.4733,0.4725,0.4778,0.4766,0.4776,0.4774,0.4815,0.4813,0.495,0.4967,0.4836,0.4837,0.4838,0,0.4666,0.4695,0.4695,0.4709,0.4712,0.4735,0.4747,0.4727,0.474,0.4749,0.4772,0.4793,0.4809,0.4848,0.4842,0.4861,0.485,0.4897,0.4853,0.486,0.4853,0.4853,0.4857,0.4906,0.4908,0.4909,0.491,0,0.4774,0.4767,0.4785,0.4802,0.4817,0.4829,0.4839,0.4852,0.4832,0.4849,0.4873,0.4886,0.4911,0.4933,0.4949,0.495,0.4928,0.4924,0.4935,0.4943,0.4949,0.4948,0.4802,0.4921,0.492,0.4919,0.4919,0.4918,0.4856,0.488,0.4884,0.4906,0.4911,0.4921,0.4943,0.4939,0.4958,0.4977,0.4964,0.4993,0.4999,0.5018,0.5023,0.5046,0.5027,0.5042,0.5046,0.5051,0.5058,0.4944,0.5048,0.5048,0.5047,0.5047,0.5047,0,0.4964,0.4965,0.4985,0.5,0.5018,0.4995,0.5005,0.5021,0.5047,0.5054,0.5071,0.51,0.5121,0.5117,0.5137,0.5156,0.5147,0.5162,0.5162,0.5163,0.5072,0.5062,0.517,0.517,0.517,0.517,0.517,0.517,0.5022,0.5063,0.5056,0.5099,0.51,0.5129,0.5137,0.5146,0.5152,0.5186,0.5204,0.52,0.5203,0.5223,0.5243,0.5241,0.5251,0.5271,0.5266,0.5181,0.5169,0.5157,0.5148,0.5272,0.5273,0.5355,0.5356,0.5356]}]]